| time (UTC) | temp F | wind direction | speed MPH | gust MPH | rain 1hr in | rain 24hr in | rain mn in | humidity % | barometer mb |
| 20260510101603 | 54 | 157 | 2.0 | 10.0 | 0.00 | 0.00 | 0.00 | 68 | 1016.3 |
| 20260510101103 | 54 | 100 | 5.0 | 6.0 | 0.00 | 0.00 | 0.00 | 68 | 1016.3 |
| 20260510100603 | 54 | 33 | 1.0 | 10.0 | 0.00 | 0.00 | 0.00 | 68 | 1016.3 |
| 20260510095603 | 54 | 63 | 1.0 | 9.0 | 0.00 | 0.00 | 0.00 | 70 | 1016.3 |
| 20260510095103 | 53 | 357 | 2.0 | 6.0 | 0.00 | 0.00 | 0.00 | 69 | 1016.3 |
| 20260510094603 | 53 | 94 | 2.0 | 7.0 | 0.00 | 0.00 | 0.00 | 69 | 1016.3 |
| 20260510094103 | 53 | 66 | 2.0 | 8.0 | 0.00 | 0.00 | 0.00 | 69 | 1016.3 |
| 20260510093605 | 53 | 74 | 2.0 | 7.0 | 0.00 | 0.00 | 0.00 | 69 | 1016.3 |
| 20260510093103 | 53 | 108 | 4.0 | 8.0 | 0.00 | 0.00 | 0.00 | 70 | 1016.3 |
| 20260510092603 | 53 | 352 | 2.0 | 3.0 | 0.00 | 0.00 | 0.00 | 70 | 1016.6 |
| 20260510092104 | 53 | 52 | 1.0 | 7.0 | 0.00 | 0.00 | 0.00 | 71 | 1016.6 |
| 20260510091603 | 53 | 27 | 2.0 | 5.0 | 0.00 | 0.00 | 0.00 | 70 | 1016.3 |
| 20260510091104 | 53 | 92 | 3.0 | 5.0 | 0.00 | 0.00 | 0.00 | 71 | 1016.6 |
| 20260510090603 | 53 | 44 | 9.0 | 13.0 | 0.00 | 0.00 | 0.00 | 70 | 1016.6 |
| 20260510085604 | 53 | 197 | 3.0 | 9.0 | 0.00 | 0.00 | 0.00 | 71 | 1016.3 |
| 20260510085103 | 53 | 343 | 4.0 | 10.0 | 0.00 | 0.00 | 0.00 | 71 | 1016.3 |
| 20260510084603 | 53 | 96 | 4.0 | 11.0 | 0.00 | 0.00 | 0.00 | 71 | 1016.6 |
| 20260510084103 | 53 | 91 | 5.0 | 14.0 | 0.00 | 0.00 | 0.00 | 71 | 1016.9 |
| 20260510083603 | 53 | 3 | 4.0 | 10.0 | 0.00 | 0.00 | 0.00 | 71 | 1016.6 |
| 20260510083103 | 53 | 99 | 2.0 | 10.0 | 0.00 | 0.00 | 0.00 | 72 | 1016.6 |
| 20260510082603 | 53 | 138 | 4.0 | 6.0 | 0.00 | 0.00 | 0.00 | 72 | 1016.9 |
| 20260510082103 | 53 | 103 | 3.0 | 9.0 | 0.00 | 0.00 | 0.00 | 73 | 1016.6 |
| 20260510081603 | 53 | 99 | 4.0 | 8.0 | 0.00 | 0.00 | 0.00 | 73 | 1016.9 |
| 20260510081103 | 52 | 29 | 2.0 | 5.0 | 0.00 | 0.00 | 0.00 | 73 | 1016.6 |
| 20260510080604 | 52 | 22 | 3.0 | 9.0 | 0.00 | 0.00 | 0.00 | 73 | 1016.6 |
| 20260510080103 | 52 | 65 | 4.0 | 6.0 | 0.00 | 0.00 | 0.00 | 74 | 1016.9 |
| 20260510075604 | 52 | 54 | 3.0 | 6.0 | 0.00 | 0.00 | 0.00 | 74 | 1016.6 |
| 20260510075103 | 52 | 103 | 3.0 | 7.0 | 0.00 | 0.00 | 0.00 | 74 | 1016.6 |
| 20260510074603 | 52 | 97 | 3.0 | 8.0 | 0.00 | 0.00 | 0.00 | 74 | 1016.6 |
| 20260510074103 | 51 | 38 | 2.0 | 3.0 | 0.00 | 0.00 | 0.00 | 75 | 1016.6 |
| 20260510073604 | 51 | 38 | 3.0 | 7.0 | 0.00 | 0.00 | 0.00 | 75 | 1016.6 |
| 20260510073104 | 51 | 18 | 5.0 | 8.0 | 0.00 | 0.00 | 0.00 | 75 | 1016.9 |
| 20260510072603 | 51 | 26 | 5.0 | 10.0 | 0.00 | 0.00 | 0.00 | 75 | 1016.9 |
| 20260510072103 | 51 | 136 | 2.0 | 6.0 | 0.00 | 0.00 | 0.00 | 76 | 1016.9 |
| 20260510071603 | 51 | 123 | 4.0 | 7.0 | 0.00 | 0.00 | 0.00 | 75 | 1016.6 |
| 20260510071104 | 51 | 83 | 1.0 | 5.0 | 0.00 | 0.00 | 0.00 | 76 | 1016.6 |
| 20260510070603 | 51 | 98 | 3.0 | 6.0 | 0.00 | 0.00 | 0.00 | 76 | 1016.6 |
| 20260510070103 | 50 | 327 | 2.0 | 7.0 | 0.00 | 0.00 | 0.00 | 77 | 1016.9 |
| 20260510065602 | 50 | 32 | 3.0 | 6.0 | 0.00 | 0.00 | 0.00 | 77 | 1016.9 |
| 20260510065103 | 51 | 50 | 3.0 | 7.0 | 0.00 | 0.00 | 0.00 | 77 | 1016.6 |
| 20260510064604 | 50 | 89 | 3.0 | 5.0 | 0.00 | 0.00 | 0.00 | 77 | 1016.9 |
| 20260510064103 | 50 | 63 | 2.0 | 6.0 | 0.00 | 0.00 | 0.00 | 77 | 1016.6 |
| 20260510063603 | 50 | 88 | 2.0 | 2.0 | 0.00 | 0.00 | 0.00 | 77 | 1016.9 |
| 20260510063103 | 50 | 62 | 1.0 | 6.0 | 0.00 | 0.00 | 0.00 | 78 | 1016.9 |
| 20260510062603 | 50 | 89 | 3.0 | 5.0 | 0.00 | 0.00 | 0.00 | 78 | 1016.9 |
| 20260510062103 | 50 | 64 | 1.0 | 6.0 | 0.00 | 0.00 | 0.00 | 79 | 1016.9 |
| 20260510061603 | 50 | 75 | 1.0 | 6.0 | 0.00 | 0.00 | 0.00 | 79 | 1016.6 |
| 20260510061103 | 50 | 73 | 1.0 | 6.0 | 0.00 | 0.00 | 0.00 | 79 | 1016.6 |
| 20260510060604 | 49 | 51 | 1.0 | 5.0 | 0.00 | 0.00 | 0.00 | 79 | 1016.6 |
| 20260510055604 | 49 | 89 | 4.0 | 6.0 | 0.00 | 0.00 | 0.00 | 80 | 1016.6 |
| 20260510055103 | 49 | 24 | 2.0 | 6.0 | 0.00 | 0.00 | 0.00 | 81 | 1016.6 |
| 20260510054603 | 49 | 23 | 2.0 | 5.0 | 0.00 | 0.00 | 0.00 | 81 | 1016.6 |
| 20260510054103 | 49 | 99 | 3.0 | 9.0 | 0.00 | 0.00 | 0.00 | 81 | 1016.3 |
| 20260510053603 | 49 | 148 | 2.0 | 10.0 | 0.00 | 0.00 | 0.00 | 81 | 1016.6 |
| 20260510053104 | 49 | 316 | 1.0 | 2.0 | 0.00 | 0.00 | 0.00 | 81 | 1016.3 |
| 20260510052603 | 49 | 329 | 1.0 | 5.0 | 0.00 | 0.00 | 0.00 | 82 | 1016.3 |
| 20260510052110 | 49 | 347 | 2.0 | 3.0 | 0.00 | 0.00 | 0.00 | 82 | 1016.3 |
| 20260510051606 | 49 | 42 | 3.0 | 5.0 | 0.00 | 0.00 | 0.00 | 82 | 1016.6 |
| 20260510051103 | 49 | 48 | 2.0 | 7.0 | 0.00 | 0.00 | 0.00 | 82 | 1016.3 |
| 20260510050603 | 49 | 305 | 1.0 | 3.0 | 0.00 | 0.00 | 0.00 | 82 | 1016.3 |
| 20260510050104 | 49 | 134 | 2.0 | 5.0 | 0.00 | 0.00 | 0.00 | 82 | 1016.3 |
| 20260510045603 | 49 | 147 | 1.0 | 7.0 | 0.00 | 0.00 | 0.00 | 82 | 1016.3 |
| 20260510045103 | 49 | 60 | 3.0 | 6.0 | 0.00 | 0.00 | 0.00 | 82 | 1016.6 |
| 20260510044603 | 49 | 34 | 3.0 | 5.0 | 0.00 | 0.00 | 0.00 | 82 | 1016.3 |
| 20260510044103 | 48 | 73 | 3.0 | 5.0 | 0.00 | 0.00 | 0.00 | 82 | 1016.3 |
| 20260510043603 | 48 | 344 | 1.0 | 5.0 | 0.00 | 0.00 | 0.00 | 82 | 1016.3 |
| 20260510043103 | 48 | 95 | 2.0 | 6.0 | 0.00 | 0.00 | 0.00 | 82 | 1016.3 |
| 20260510042604 | 48 | 318 | 2.0 | 6.0 | 0.00 | 0.00 | 0.00 | 82 | 1016.3 |
| 20260510042103 | 48 | 46 | 1.0 | 5.0 | 0.00 | 0.00 | 0.00 | 82 | 1016.6 |
| 20260510041603 | 48 | 297 | 3.0 | 9.0 | 0.00 | 0.00 | 0.00 | 82 | 1016.6 |
| 20260510041103 | 48 | 356 | 1.0 | 7.0 | 0.00 | 0.00 | 0.00 | 82 | 1016.6 |
| 20260510040604 | 48 | 160 | 2.0 | 5.0 | 0.00 | 0.00 | 0.00 | 82 | 1016.6 |
| 20260510040104 | 48 | 40 | 4.0 | 6.0 | 0.00 | 0.00 | 0.00 | 82 | 1016.6 |
| 20260510035603 | 48 | 106 | 3.0 | 7.0 | 0.00 | 0.00 | 0.00 | 82 | 1016.3 |
| 20260510035104 | 48 | 100 | 3.0 | 5.0 | 0.00 | 0.00 | 0.00 | 82 | 1016.9 |
| 20260510034603 | 48 | 92 | 6.0 | 9.0 | 0.00 | 0.00 | 0.00 | 81 | 1016.6 |
| 20260510034103 | 48 | 91 | 1.0 | 8.0 | 0.00 | 0.00 | 0.00 | 81 | 1016.6 |
| 20260510033603 | 48 | 90 | 3.0 | 7.0 | 0.00 | 0.00 | 0.00 | 80 | 1016.9 |
| 20260510033103 | 48 | 340 | 5.0 | 8.0 | 0.00 | 0.00 | 0.00 | 81 | 1016.6 |
| 20260510032603 | 49 | 97 | 3.0 | 7.0 | 0.00 | 0.00 | 0.00 | 80 | 1016.6 |
| 20260510032103 | 49 | 11 | 1.0 | 5.0 | 0.00 | 0.00 | 0.00 | 80 | 1016.6 |
| 20260510031603 | 49 | 85 | 5.0 | 8.0 | 0.00 | 0.00 | 0.00 | 80 | 1016.6 |
| 20260510031103 | 49 | 32 | 2.0 | 9.0 | 0.00 | 0.00 | 0.00 | 79 | 1016.9 |
| 20260510030604 | 49 | 136 | 2.0 | 5.0 | 0.00 | 0.00 | 0.00 | 79 | 1016.9 |
| 20260510030104 | 49 | 13 | 3.0 | 5.0 | 0.00 | 0.00 | 0.00 | 79 | 1016.9 |
| 20260510025603 | 49 | 256 | 4.0 | 6.0 | 0.00 | 0.00 | 0.00 | 79 | 1016.9 |
| 20260510025104 | 49 | 64 | 4.0 | 10.0 | 0.00 | 0.00 | 0.00 | 78 | 1016.6 |
| 20260510024603 | 49 | 76 | 4.0 | 6.0 | 0.00 | 0.00 | 0.00 | 77 | 1016.6 |
| 20260510024103 | 49 | 51 | 3.0 | 6.0 | 0.00 | 0.00 | 0.00 | 76 | 1016.9 |
| 20260510023603 | 50 | 1 | 2.0 | 7.0 | 0.00 | 0.00 | 0.00 | 76 | 1016.6 |
| 20260510023103 | 50 | 75 | 3.0 | 5.0 | 0.00 | 0.00 | 0.00 | 76 | 1016.9 |
| 20260510022603 | 50 | 20 | 2.0 | 5.0 | 0.00 | 0.00 | 0.00 | 76 | 1016.9 |
| 20260510022103 | 50 | 57 | 1.0 | 6.0 | 0.00 | 0.00 | 0.00 | 75 | 1016.6 |
| 20260510021604 | 50 | 83 | 4.0 | 7.0 | 0.00 | 0.00 | 0.00 | 75 | 1016.6 |
| 20260510021103 | 50 | 30 | 1.0 | 5.0 | 0.00 | 0.00 | 0.00 | 75 | 1016.9 |
| 20260510020604 | 50 | 66 | 2.0 | 5.0 | 0.00 | 0.00 | 0.00 | 74 | 1016.6 |
| 20260510015604 | 50 | 73 | 1.0 | 2.0 | 0.00 | 0.00 | 0.00 | 72 | 1016.6 |
| 20260510015103 | 50 | 39 | 2.0 | 3.0 | 0.00 | 0.00 | 0.00 | 72 | 1016.9 |
| 20260510014603 | 50 | 317 | 3.0 | 5.0 | 0.00 | 0.00 | 0.00 | 71 | 1016.6 |
| 20260510014103 | 50 | 356 | 2.0 | 2.0 | 0.00 | 0.00 | 0.00 | 71 | 1016.9 |
| 20260510013603 | 51 | 73 | 1.0 | 3.0 | 0.00 | 0.00 | 0.00 | 71 | 1016.6 |
| 20260510013103 | 51 | 58 | 1.0 | 2.0 | 0.00 | 0.00 | 0.00 | 71 | 1016.6 |
| 20260510012603 | 51 | 31 | 3.0 | 5.0 | 0.00 | 0.00 | 0.00 | 71 | 1016.9 |
| 20260510012104 | 51 | 30 | 1.0 | 3.0 | 0.00 | 0.00 | 0.00 | 70 | 1016.9 |
| 20260510011603 | 51 | 15 | 1.0 | 2.0 | 0.00 | 0.00 | 0.00 | 69 | 1016.9 |
| 20260510011104 | 51 | 192 | 0.0 | 9.0 | 0.00 | 0.00 | 0.00 | 70 | 1016.9 |
| 20260510010603 | 51 | 48 | 1.0 | 3.0 | 0.00 | 0.00 | 0.00 | 70 | 1016.9 |
| 20260510010103 | 51 | 89 | 1.0 | 3.0 | 0.00 | 0.00 | 0.00 | 70 | 1016.9 |
| 20260510005603 | 51 | 62 | 1.0 | 1.0 | 0.00 | 0.00 | 0.00 | 69 | 1016.9 |
| 20260510005103 | 51 | 80 | 0.0 | 2.0 | 0.00 | 0.00 | 0.00 | 69 | 1016.9 |
| 20260510004604 | 51 | 72 | 1.0 | 3.0 | 0.00 | 0.00 | 0.00 | 70 | 1016.9 |
| 20260510004104 | 51 | 69 | 1.0 | 3.0 | 0.00 | 0.00 | 0.00 | 69 | 1016.9 |
| 20260510003603 | 51 | 77 | 1.0 | 8.0 | 0.00 | 0.00 | 0.00 | 69 | 1016.9 |
| 20260510003104 | 51 | 88 | 2.0 | 5.0 | 0.00 | 0.00 | 0.00 | 68 | 1016.9 |
| 20260510002604 | 51 | 110 | 2.0 | 3.0 | 0.00 | 0.00 | 0.00 | 67 | 1016.6 |
| 20260510002103 | 51 | 92 | 1.0 | 3.0 | 0.00 | 0.00 | 0.00 | 67 | 1016.9 |
| 20260510001603 | 52 | 59 | 1.0 | 5.0 | 0.00 | 0.00 | 0.00 | 66 | 1016.9 |
| 20260510001103 | 52 | 83 | 0.0 | 2.0 | 0.00 | 0.00 | 0.00 | 66 | 1016.6 |
| 20260510000603 | 52 | 75 | 1.0 | 3.0 | 0.00 | 0.00 | 0.00 | 65 | 1016.6 |
| 20260510000103 | 52 | 94 | 2.0 | 3.0 | 0.00 | 0.00 | 0.00 | 65 | 1016.9 |
| 20260509235603 | 52 | 96 | 2.0 | 2.0 | 0.00 | 0.00 | 0.00 | 64 | 1016.9 |
| 20260509235103 | 52 | 87 | 1.0 | 7.0 | 0.00 | 0.00 | 0.00 | 64 | 1016.6 |
| 20260509234603 | 53 | 85 | 0.0 | 6.0 | 0.00 | 0.00 | 0.00 | 63 | 1016.9 |
| 20260509234103 | 53 | 46 | 3.0 | 7.0 | 0.00 | 0.00 | 0.00 | 63 | 1016.6 |
| 20260509233603 | 53 | 203 | 1.0 | 6.0 | 0.00 | 0.00 | 0.00 | 63 | 1016.6 |
| 20260509233104 | 53 | 73 | 3.0 | 5.0 | 0.00 | 0.00 | 0.00 | 62 | 1016.9 |
| 20260509232603 | 53 | 76 | 1.0 | 3.0 | 0.00 | 0.00 | 0.00 | 61 | 1016.9 |
| 20260509232103 | 53 | 66 | 2.0 | 7.0 | 0.00 | 0.00 | 0.00 | 62 | 1016.6 |
| 20260509231603 | 53 | 116 | 1.0 | 3.0 | 0.00 | 0.00 | 0.00 | 61 | 1016.6 |
| 20260509231104 | 53 | 85 | 0.0 | 1.0 | 0.00 | 0.00 | 0.00 | 61 | 1016.9 |
| 20260509230603 | 53 | 108 | 1.0 | 2.0 | 0.00 | 0.00 | 0.00 | 61 | 1016.6 |
| 20260509230103 | 53 | 77 | 0.0 | 1.0 | 0.00 | 0.00 | 0.00 | 61 | 1016.6 |
| 20260509225603 | 53 | 90 | 3.0 | 5.0 | 0.00 | 0.00 | 0.00 | 60 | 1016.6 |
| 20260509225103 | 53 | 76 | 0.0 | 1.0 | 0.00 | 0.00 | 0.00 | 60 | 1016.6 |
| 20260509224603 | 53 | 86 | 0.0 | 1.0 | 0.00 | 0.00 | 0.00 | 60 | 1016.9 |
| 20260509224103 | 53 | 87 | 2.0 | 5.0 | 0.00 | 0.00 | 0.00 | 60 | 1016.9 |
| 20260509223603 | 53 | 91 | 0.0 | 2.0 | 0.00 | 0.00 | 0.00 | 59 | 1016.6 |
| 20260509223103 | 53 | 126 | 3.0 | 6.0 | 0.00 | 0.00 | 0.00 | 58 | 1016.9 |
| 20260509222603 | 53 | 96 | 0.0 | 1.0 | 0.00 | 0.00 | 0.00 | 58 | 1016.9 |
| 20260509222104 | 53 | 85 | 0.0 | 1.0 | 0.00 | 0.00 | 0.00 | 58 | 1016.6 |
| 20260509221603 | 53 | 94 | 0.0 | 2.0 | 0.00 | 0.00 | 0.00 | 58 | 1016.6 |
| 20260509221103 | 53 | 89 | 1.0 | 5.0 | 0.00 | 0.00 | 0.00 | 57 | 1016.3 |
| 20260509220603 | 53 | 91 | 1.0 | 1.0 | 0.00 | 0.00 | 0.00 | 56 | 1016.6 |
| 20260509215603 | 54 | 79 | 1.0 | 2.0 | 0.00 | 0.00 | 0.00 | 55 | 1016.6 |
| 20260509215103 | 54 | 79 | 2.0 | 2.0 | 0.00 | 0.00 | 0.00 | 54 | 1016.6 |
| 20260509214603 | 54 | 108 | 1.0 | 5.0 | 0.00 | 0.00 | 0.00 | 53 | 1016.6 |
| 20260509214104 | 54 | 83 | 0.0 | 5.0 | 0.00 | 0.00 | 0.00 | 53 | 1016.6 |
| 20260509213603 | 54 | 101 | 1.0 | 2.0 | 0.00 | 0.00 | 0.00 | 53 | 1016.9 |
| 20260509213103 | 54 | 68 | 0.0 | 6.0 | 0.00 | 0.00 | 0.00 | 52 | 1016.6 |
| 20260509212603 | 54 | 86 | 0.0 | 2.0 | 0.00 | 0.00 | 0.00 | 51 | 1016.6 |
| 20260509212103 | 54 | 95 | 1.0 | 7.0 | 0.00 | 0.00 | 0.00 | 50 | 1016.6 |
| 20260509211603 | 54 | 95 | 0.0 | 2.0 | 0.00 | 0.00 | 0.00 | 49 | 1016.6 |
| 20260509211104 | 55 | 90 | 1.0 | 2.0 | 0.00 | 0.00 | 0.00 | 49 | 1016.9 |
| 20260509210603 | 55 | 53 | 3.0 | 3.0 | 0.00 | 0.00 | 0.00 | 48 | 1016.3 |
| 20260509210106 | 55 | 80 | 1.0 | 2.0 | 0.00 | 0.00 | 0.00 | 48 | 1016.6 |
| 20260509205603 | 55 | 87 | 1.0 | 2.0 | 0.00 | 0.00 | 0.00 | 47 | 1016.6 |
| 20260509205103 | 55 | 81 | 1.0 | 2.0 | 0.00 | 0.00 | 0.00 | 46 | 1016.3 |
| 20260509204604 | 56 | 75 | 1.0 | 3.0 | 0.00 | 0.00 | 0.00 | 46 | 1016.6 |
| 20260509204103 | 56 | 82 | 0.0 | 2.0 | 0.00 | 0.00 | 0.00 | 45 | 1016.3 |
| 20260509203604 | 56 | 78 | 1.0 | 6.0 | 0.00 | 0.00 | 0.00 | 46 | 1016.6 |
| 20260509203103 | 56 | 76 | 0.0 | 3.0 | 0.00 | 0.00 | 0.00 | 46 | 1016.3 |
| 20260509202603 | 56 | 73 | 2.0 | 5.0 | 0.00 | 0.00 | 0.00 | 45 | 1016.3 |
| 20260509202104 | 57 | 96 | 2.0 | 3.0 | 0.00 | 0.00 | 0.00 | 46 | 1016.3 |
| 20260509201603 | 57 | 57 | 2.0 | 5.0 | 0.00 | 0.00 | 0.00 | 46 | 1016.3 |
| 20260509201103 | 57 | 96 | 1.0 | 3.0 | 0.00 | 0.00 | 0.00 | 46 | 1016.3 |
| 20260509200603 | 57 | 74 | 4.0 | 6.0 | 0.00 | 0.00 | 0.00 | 46 | 1015.9 |
| 20260509200103 | 57 | 38 | 3.0 | 5.0 | 0.00 | 0.00 | 0.00 | 46 | 1015.9 |
| 20260509195604 | 57 | 106 | 1.0 | 6.0 | 0.00 | 0.00 | 0.00 | 46 | 1015.9 |
| 20260509195103 | 58 | 243 | 3.0 | 7.0 | 0.00 | 0.00 | 0.00 | 46 | 1015.9 |
| 20260509194604 | 58 | 86 | 1.0 | 6.0 | 0.00 | 0.00 | 0.00 | 46 | 1015.9 |
| 20260509194103 | 58 | 86 | 1.0 | 2.0 | 0.00 | 0.00 | 0.00 | 47 | 1016.3 |
| 20260509193603 | 58 | 108 | 1.0 | 6.0 | 0.00 | 0.00 | 0.00 | 47 | 1015.9 |
| 20260509193103 | 59 | 119 | 2.0 | 3.0 | 0.00 | 0.00 | 0.00 | 48 | 1015.9 |
| 20260509192603 | 59 | 87 | 1.0 | 1.0 | 0.00 | 0.00 | 0.00 | 48 | 1015.9 |
| 20260509192104 | 59 | 69 | 1.0 | 3.0 | 0.00 | 0.00 | 0.00 | 48 | 1015.9 |
| 20260509191603 | 59 | 79 | 1.0 | 3.0 | 0.00 | 0.00 | 0.00 | 47 | 1015.9 |
| 20260509191103 | 59 | 80 | 1.0 | 3.0 | 0.00 | 0.00 | 0.00 | 47 | 1015.6 |
| 20260509190603 | 60 | 85 | 1.0 | 2.0 | 0.00 | 0.00 | 0.00 | 46 | 1015.6 |
| 20260509185603 | 60 | 79 | 1.0 | 5.0 | 0.00 | 0.00 | 0.00 | 45 | 1015.9 |
| 20260509185103 | 60 | 89 | 1.0 | 3.0 | 0.00 | 0.00 | 0.00 | 45 | 1015.9 |
| 20260509184603 | 60 | 97 | 3.0 | 6.0 | 0.00 | 0.00 | 0.00 | 45 | 1015.6 |
| 20260509184103 | 61 | 160 | 6.0 | 7.0 | 0.00 | 0.00 | 0.00 | 47 | 1015.6 |
| 20260509183604 | 61 | 290 | 1.0 | 3.0 | 0.00 | 0.00 | 0.00 | 47 | 1015.6 |
| 20260509183103 | 61 | 108 | 1.0 | 8.0 | 0.00 | 0.00 | 0.00 | 47 | 1015.6 |
| 20260509182603 | 62 | 100 | 0.0 | 6.0 | 0.00 | 0.00 | 0.00 | 47 | 1015.6 |
| 20260509182103 | 62 | 62 | 1.0 | 7.0 | 0.00 | 0.00 | 0.00 | 47 | 1015.2 |
| 20260509181604 | 62 | 117 | 0.0 | 2.0 | 0.00 | 0.00 | 0.00 | 46 | 1015.6 |
| 20260509181104 | 62 | 84 | 2.0 | 8.0 | 0.00 | 0.00 | 0.00 | 45 | 1015.6 |
| 20260509180603 | 63 | 115 | 1.0 | 7.0 | 0.00 | 0.00 | 0.00 | 45 | 1015.6 |
| 20260509180103 | 63 | 42 | 4.0 | 7.0 | 0.00 | 0.00 | 0.00 | 45 | 1015.2 |
| 20260509175605 | 63 | 186 | 3.0 | 6.0 | 0.00 | 0.00 | 0.00 | 44 | 1015.2 |
| 20260509175104 | 63 | 89 | 4.0 | 7.0 | 0.00 | 0.00 | 0.00 | 44 | 1015.2 |
| 20260509174603 | 64 | 39 | 1.0 | 7.0 | 0.00 | 0.00 | 0.00 | 44 | 1015.2 |
| 20260509174103 | 64 | 241 | 2.0 | 7.0 | 0.00 | 0.00 | 0.00 | 42 | 1015.6 |
| 20260509173603 | 64 | 64 | 3.0 | 8.0 | 0.00 | 0.00 | 0.00 | 42 | 1015.2 |
| 20260509173109 | 65 | 57 | 7.0 | 9.0 | 0.00 | 0.00 | 0.00 | 42 | 1015.2 |
| 20260509172603 | 66 | 96 | 6.0 | 11.0 | 0.00 | 0.00 | 0.00 | 43 | 1015.2 |
| 20260509172103 | 66 | 211 | 1.0 | 8.0 | 0.00 | 0.00 | 0.00 | 42 | 1015.2 |
| 20260509171604 | 66 | 13 | 2.0 | 5.0 | 0.00 | 0.00 | 0.00 | 42 | 1015.2 |
| 20260509171104 | 66 | 345 | 3.0 | 6.0 | 0.00 | 0.00 | 0.00 | 42 | 1015.6 |
| 20260509170604 | 66 | 163 | 2.0 | 8.0 | 0.00 | 0.00 | 0.00 | 42 | 1015.2 |
| 20260509170104 | 66 | 58 | 4.0 | 7.0 | 0.00 | 0.00 | 0.00 | 44 | 1015.2 |
| 20260509165604 | 66 | 109 | 2.0 | 7.0 | 0.00 | 0.00 | 0.00 | 43 | 1015.2 |
| 20260509165103 | 66 | 105 | 3.0 | 6.0 | 0.00 | 0.00 | 0.00 | 44 | 1014.9 |
| 20260509164604 | 66 | 87 | 4.0 | 5.0 | 0.00 | 0.00 | 0.00 | 44 | 1015.2 |
| 20260509164104 | 66 | 80 | 1.0 | 3.0 | 0.00 | 0.00 | 0.00 | 44 | 1015.2 |
| 20260509163604 | 67 | 45 | 2.0 | 6.0 | 0.00 | 0.00 | 0.00 | 43 | 1014.9 |
| 20260509163103 | 67 | 85 | 5.0 | 13.0 | 0.00 | 0.00 | 0.00 | 42 | 1015.2 |
| 20260509162603 | 68 | 81 | 3.0 | 8.0 | 0.00 | 0.00 | 0.00 | 43 | 1014.9 |
| 20260509162103 | 68 | 80 | 3.0 | 10.0 | 0.00 | 0.00 | 0.00 | 41 | 1014.9 |
| 20260509161603 | 69 | 212 | 2.0 | 5.0 | 0.00 | 0.00 | 0.00 | 42 | 1014.9 |
| 20260509161104 | 69 | 56 | 3.0 | 3.0 | 0.00 | 0.00 | 0.00 | 41 | 1014.9 |
| 20260509160603 | 69 | 206 | 5.0 | 7.0 | 0.00 | 0.00 | 0.00 | 42 | 1015.2 |
| 20260509160103 | 69 | 50 | 5.0 | 8.0 | 0.00 | 0.00 | 0.00 | 41 | 1014.9 |
| 20260509155603 | 69 | 187 | 4.0 | 9.0 | 0.00 | 0.00 | 0.00 | 43 | 1014.9 |
| 20260509155103 | 69 | 102 | 2.0 | 6.0 | 0.00 | 0.00 | 0.00 | 42 | 1015.2 |
| 20260509154603 | 69 | 240 | 4.0 | 14.0 | 0.00 | 0.00 | 0.00 | 42 | 1015.2 |
| 20260509154103 | 69 | 140 | 1.0 | 2.0 | 0.00 | 0.00 | 0.00 | 42 | 1014.9 |
| 20260509153603 | 69 | 60 | 5.0 | 8.0 | 0.00 | 0.00 | 0.00 | 41 | 1015.2 |
| 20260509153103 | 69 | 93 | 3.0 | 6.0 | 0.00 | 0.00 | 0.00 | 42 | 1015.2 |
| 20260509152603 | 69 | 67 | 2.0 | 5.0 | 0.00 | 0.00 | 0.00 | 42 | 1015.2 |
| 20260509152104 | 70 | 125 | 2.0 | 5.0 | 0.00 | 0.00 | 0.00 | 41 | 1015.2 |
| 20260509151603 | 70 | 304 | 1.0 | 6.0 | 0.00 | 0.00 | 0.00 | 41 | 1015.6 |
| 20260509151103 | 70 | 59 | 1.0 | 5.0 | 0.00 | 0.00 | 0.00 | 41 | 1015.2 |
| 20260509150603 | 71 | 131 | 3.0 | 8.0 | 0.00 | 0.00 | 0.00 | 41 | 1015.2 |
| 20260509150104 | 71 | 106 | 2.0 | 8.0 | 0.00 | 0.00 | 0.00 | 41 | 1015.2 |
| 20260509145604 | 70 | 166 | 7.0 | 9.0 | 0.00 | 0.00 | 0.00 | 43 | 1015.6 |
| 20260509145104 | 70 | 206 | 1.0 | 7.0 | 0.00 | 0.00 | 0.00 | 40 | 1015.2 |
| 20260509144603 | 70 | 31 | 1.0 | 5.0 | 0.00 | 0.00 | 0.00 | 41 | 1015.2 |
| 20260509144103 | 70 | 130 | 3.0 | 9.0 | 0.00 | 0.00 | 0.00 | 41 | 1015.2 |
| 20260509143603 | 70 | 119 | 3.0 | 6.0 | 0.00 | 0.00 | 0.00 | 40 | 1015.2 |
| 20260509143103 | 70 | 253 | 1.0 | 5.0 | 0.00 | 0.00 | 0.00 | 43 | 1015.2 |
| 20260509142605 | 70 | 184 | 3.0 | 8.0 | 0.00 | 0.00 | 0.00 | 42 | 1015.2 |
| 20260509142103 | 69 | 49 | 3.0 | 7.0 | 0.00 | 0.00 | 0.00 | 42 | 1015.2 |
| 20260509141603 | 69 | 92 | 3.0 | 8.0 | 0.00 | 0.00 | 0.00 | 42 | 1014.9 |
| 20260509141103 | 69 | 291 | 3.0 | 5.0 | 0.00 | 0.00 | 0.00 | 42 | 1015.2 |
| 20260509140603 | 69 | 172 | 3.0 | 8.0 | 0.00 | 0.00 | 0.00 | 42 | 1014.9 |
| 20260509140103 | 69 | 350 | 4.0 | 6.0 | 0.00 | 0.00 | 0.00 | 43 | 1015.2 |
| 20260509135604 | 69 | 12 | 2.0 | 5.0 | 0.00 | 0.00 | 0.00 | 42 | 1014.9 |
| 20260509135104 | 69 | 160 | 3.0 | 3.0 | 0.00 | 0.00 | 0.00 | 42 | 1015.2 |
| 20260509134603 | 69 | 163 | 6.0 | 10.0 | 0.00 | 0.00 | 0.00 | 44 | 1015.2 |
| 20260509134103 | 69 | 78 | 4.0 | 8.0 | 0.00 | 0.00 | 0.00 | 42 | 1015.2 |
| 20260509133603 | 68 | 101 | 3.0 | 5.0 | 0.00 | 0.00 | 0.00 | 43 | 1015.2 |
| 20260509133104 | 68 | 308 | 4.0 | 7.0 | 0.00 | 0.00 | 0.00 | 44 | 1015.2 |
| 20260509132603 | 68 | 149 | 0.0 | 8.0 | 0.00 | 0.00 | 0.00 | 44 | 1015.2 |
| 20260509132103 | 68 | 98 | 2.0 | 5.0 | 0.00 | 0.00 | 0.00 | 43 | 1015.2 |
| 20260509131603 | 68 | 108 | 2.0 | 3.0 | 0.00 | 0.00 | 0.00 | 46 | 1015.2 |
| 20260509131103 | 68 | 256 | 3.0 | 8.0 | 0.00 | 0.00 | 0.00 | 46 | 1015.2 |
| 20260509130603 | 68 | 72 | 3.0 | 6.0 | 0.00 | 0.00 | 0.00 | 45 | 1015.2 |
| 20260509125603 | 68 | 234 | 3.0 | 8.0 | 0.00 | 0.00 | 0.00 | 47 | 1015.2 |
| 20260509125103 | 68 | 302 | 1.0 | 3.0 | 0.00 | 0.00 | 0.00 | 46 | 1015.6 |
| 20260509124603 | 68 | 300 | 3.0 | 8.0 | 0.00 | 0.00 | 0.00 | 48 | 1015.6 |
| 20260509124103 | 67 | 59 | 3.0 | 7.0 | 0.00 | 0.00 | 0.00 | 47 | 1015.6 |
| 20260509123604 | 67 | 152 | 1.0 | 7.0 | 0.00 | 0.00 | 0.00 | 48 | 1015.6 |
| 20260509123103 | 67 | 186 | 3.0 | 7.0 | 0.00 | 0.00 | 0.00 | 47 | 1015.6 |
| 20260509122603 | 67 | 117 | 1.0 | 3.0 | 0.00 | 0.00 | 0.00 | 50 | 1015.9 |
| 20260509122104 | 67 | 239 | 3.0 | 9.0 | 0.00 | 0.00 | 0.00 | 50 | 1015.9 |
| 20260509121603 | 67 | 98 | 3.0 | 5.0 | 0.00 | 0.00 | 0.00 | 50 | 1015.9 |
| 20260509121103 | 67 | 100 | 5.0 | 7.0 | 0.00 | 0.00 | 0.00 | 51 | 1015.9 |
| 20260509120603 | 66 | 80 | 4.0 | 6.0 | 0.00 | 0.00 | 0.00 | 49 | 1015.9 |
| 20260509120103 | 66 | 257 | 1.0 | 6.0 | 0.00 | 0.00 | 0.00 | 49 | 1016.3 |
| 20260509115604 | 67 | 69 | 3.0 | 8.0 | 0.00 | 0.00 | 0.00 | 50 | 1015.9 |
| 20260509115104 | 67 | 158 | 2.0 | 6.0 | 0.00 | 0.00 | 0.00 | 51 | 1016.3 |
| 20260509114603 | 68 | 160 | 1.0 | 7.0 | 0.00 | 0.00 | 0.00 | 50 | 1016.3 |
| 20260509114103 | 68 | 226 | 0.0 | 6.0 | 0.00 | 0.00 | 0.00 | 53 | 1016.3 |
| 20260509113612 | 67 | 8 | 3.0 | 6.0 | 0.00 | 0.00 | 0.00 | 55 | 1016.3 |
| 20260509113103 | 67 | 154 | 4.0 | 8.0 | 0.00 | 0.00 | 0.00 | 56 | 1016.3 |
| 20260509112605 | 66 | 100 | 2.0 | 5.0 | 0.00 | 0.00 | 0.00 | 57 | 1016.3 |
| 20260509112104 | 66 | 92 | 3.0 | 9.0 | 0.00 | 0.00 | 0.00 | 56 | 1016.3 |
| 20260509111604 | 66 | 137 | 2.0 | 7.0 | 0.00 | 0.00 | 0.00 | 55 | 1016.3 |
| 20260509111103 | 66 | 67 | 3.0 | 5.0 | 0.00 | 0.00 | 0.00 | 57 | 1016.3 |
| 20260509110603 | 66 | 192 | 3.0 | 7.0 | 0.00 | 0.00 | 0.00 | 57 | 1016.6 |
| 20260509105603 | 66 | 58 | 2.0 | 3.0 | 0.00 | 0.00 | 0.00 | 57 | 1016.3 |
| 20260509105104 | 66 | 306 | 3.0 | 10.0 | 0.00 | 0.00 | 0.00 | 57 | 1016.6 |
| 20260509104603 | 66 | 19 | 3.0 | 9.0 | 0.00 | 0.00 | 0.00 | 58 | 1016.6 |
| 20260509104108 | 65 | 83 | 2.0 | 5.0 | 0.00 | 0.00 | 0.00 | 59 | 1016.9 |
| 20260509103604 | 65 | 85 | 2.0 | 3.0 | 0.00 | 0.00 | 0.00 | 61 | 1016.6 |
| 20260509103104 | 64 | 130 | 2.0 | 3.0 | 0.00 | 0.00 | 0.00 | 61 | 1016.9 |
| 20260509102603 | 64 | 77 | 1.0 | 5.0 | 0.00 | 0.00 | 0.00 | 60 | 1016.9 |
| 20260509102103 | 64 | 85 | 0.0 | 3.0 | 0.00 | 0.00 | 0.00 | 61 | 1016.9 |